Flag Weather past 2 weeks in New Westminster, British Columbia, Canada

Now
47 °F

Cool.


Feels Like: 45 °F
Forecast: 40 / 47 °F
Wind: 6 mph from Southwest

Location: P. Meadows Coastal Station

Current Time: Nov 23, 2014 at 9:47:01 AM

Latest Report: Nov 23, 2014 at 9:00 AM


Visibility: N/A

Pressure: 29.97 "Hg

Humidity: 90%

Dew point: 45 °F

Location of New WestminsterLocation

Historic Weather in New Westminster — Graph

°F

New Westminster temperature yesterday

Maximum temperature yesterday: 52 °F (at 3:00 PM)
Minimum temperature yesterday: 38 °F (at 10:00 PM)
Average temperature yesterday: 45 °F

Past Weeks' High & Low Weather Summary

 TemperatureHumidityPressure
High53 °F (Nov 10, 3:00 PM)100% (Nov 8, 8:00 AM)30.57 "Hg (Nov 8, 8:00 AM)
Low21 °F (Nov 14, 4:00 AM)20% (Nov 12, 3:00 PM)29.27 "Hg (Nov 21, 7:00 PM)
Average39 °F78%30.12 "Hg
* Reported Nov 8 8:00 AM — Nov 23 8:00 AM, New Westminster, Weather by CustomWeather, © 2014

Note: Actual official high and low records may vary slightly from our data, if they occured in-between our weather recording intervals... More about our weather records

Advertising

New Westminster weather history for previous 24 hours

 ConditionsComfort  
Time TempWeatherWind HumidityBarometerVisibility
8:00 AM
Nov 23
47 °FCool.8 mph83%29.94 "HgN/A
7:00 AM46 °FCool.9 mph90%29.93 "HgN/A
6:00 AM44 °FQuite cool.7 mph97%29.97 "HgN/A
5:00 AM45 °FCool.8 mph93%29.96 "HgN/A
4:00 AM46 °FCool.12 mph92%30.00 "HgN/A
3:00 AM45 °FQuite cool.3 mph99%30.05 "HgN/A
2:00 AM41 °FQuite cool.1 mph92%30.06 "HgN/A
1:00 AM39 °FChilly.1 mph98%30.07 "HgN/A
12:00 AM39 °FChilly.No wind99%30.07 "HgN/A
11:00 PM
Nov 22
39 °FChilly.No wind98%30.06 "HgN/A
10:00 PM38 °FChilly.No wind97%30.05 "HgN/A
9:00 PM39 °FChilly.2 mph96%30.02 "HgN/A
8:00 PM43 °FQuite cool.2 mph89%30.01 "HgN/A
7:00 PM41 °FQuite cool.3 mph93%29.98 "HgN/A
5:00 PM46 °FCool.3 mph79%29.93 "HgN/A
4:00 PM49 °FCool.6 mph68%29.89 "HgN/A
3:00 PM52 °FCool.5 mph63%29.85 "HgN/A
2:00 PM49 °FCool.1 mph80%29.83 "HgN/A
1:00 PM47 °FCool.1 mph86%29.80 "HgN/A
12:00 PM49 °FCool.2 mph83%29.77 "HgN/A
11:00 AM49 °FCool.1 mph77%29.74 "HgN/A
10:00 AM46 °FCool.1 mph89%29.71 "HgN/A
9:00 AM42 °FQuite cool.2 mph97%29.69 "HgN/A
Weather by CustomWeather, © 2014

See weather overviewHow to use our weather pages